Погода в Тихвине

Погода в Тихвине : погода сейчас, прогноз погоды и архив. Всё, что Вы хотите узнать о погоде в Тихвине!

Хотите узнать прогноз погоды в Тихвине? Тогда Вам сюда: Погода в Тихвине

Поиск расширенной информации на нашем сайте:

Полезная информация:

Другие новости

Новости СМИ2

Главная страница сайта

Новости сайта

03.07.2017

Напоминаем, что на нашем специализированном сайте Метеоцентр.Азия вы можете получить высокодетализированные автоматические прогнозы погоды по пунктам России, СНГ и мира в авиационном формате (включающие направление и скорость ветра, видимость, явления погоды, количество и форму облачности, нижнюю и верхнюю границу облачности).

Рекомендуем:

Погода в Тихвине - сегодня

Время (UTC), дата Ветер
(°,м/с) 
Видим.   Явления Облачность Т
(°С)
Тd
(°С)
f(%) Тe
(°С)
Pmin
(гПа)
dP
(гПа)
Po
(мм)
O2
(г/м3)
Тmin Tmax R s Состояние
почвы
21 18.05.19 тихо ()   20000 м    ясно 
+8.2 +5.2 81 +8  1019.5  0.5  759  296           
00 19.05.19 080 (В) 20000 м    ясно 
+5.5 +4.6 94 +6  1021.1  1.5  760  300           
03 19.05.19 080 (В) 30000 м    1/0 верхняя 
[Ci fib]
+8 +3.6 74 +9  1021.1  760  297  +5.1         
06 19.05.19 100 (В) 30000 м    ясно 
+15 +2.5 43 +16  1021.5  0.5  761  290  +5.1        сухая 
09 19.05.19 350 (С) 40000 м    ясно 
+18.8 +3.8 37 +20  1020.9  -0.4  760  286           
12 19.05.19 050 (СВ) 40000 м    3/1 1000 м верхняя 
[Cu hum|Ci fib]
+21.1 +5.4 36 +21  1020.2  -0.7  760  283           
15 19.05.19 340 (С) 40000 м    8/0 верхняя 
[Ci fib]
+21.7 +5.5 35 +22  1019.7  -0.4  759  283           
18 19.05.19 070 (В) 30000 м    8/0 средняя, верхняя 
[Ac trans|Ci fib]
+16.5 +5.8 49 +17  1019.7  -0.1  759  288    +22.6       
21 19.05.19 070 (В) 20000 м    8/0 верхняя 
[Cc]
+11 +4.6 65 +11  1021.1  1.1  760  294           
00 20.05.19 060 (СВ) 20000 м    9/0 верхняя 
[Cc]
+6.6 +2.2 73 +8  1022.5  1.3  761  299           
03 20.05.19 080 (В) 30000 м    9/0 средняя, верхняя 
[Ac trans|Cc]
+8 +1.4 63 +9  1022.6  0.2  761  298  +6         
06 20.05.19 120 (ЮВ) 30000 м    9/0 верхняя 
[Ci fib]
+14 +3.4 49 +15  1022.5  0.1  761  291  +6        сухая 
09 20.05.19 060 (СВ) 40000 м    4/0 верхняя 
[Cc]
+19 +2.6 34 +20  1021.9  -0.5  761  286           
12 20.05.19 160 (Ю) 40000 м    6/0 верхняя 
[Cc]
+22.5 +2.9 28 +23  1020.3  -1.5  760  282           
15 20.05.19 110 (В) 40000 м    8/0 средняя, верхняя 
[Ac trans|Cc]
+23.4 +4.8 30 +23  1018.7  -1.6  759  281           
18 20.05.19 100 (В) 30000 м    9/0 средняя, верхняя 
[Ac trans|Ci fib]
+19.6 +6.5 42 +21  1018.2  -0.6  758  284    +23.4       
21 20.05.19 080 (В) 20000 м    5/0 средняя 
[Ac trans]
+15.9 +5.5 50 +17  1018.1  -0.2  758  288           
00 21.05.19 080 (В) 20000 м    8/4 600 м средняя 
[Sc|Ac trans]
+15.6 +4.5 48 +16  1017.5  -0.6  758  288           
03 21.05.19 100 (В) 20000 м    9/0 средняя, верхняя 
[Ac trans|Ci fib]
+14.2 +5.6 56 +15  1017.1  -0.4  757  289  +13         
06 21.05.19 070 (В) 30000 м    9/0 средняя 
[Ac und]
+17.4 +7.5 52 +18  1016.4  -0.7  757  285  +13        сухая 
09 21.05.19 100 (В) 40000 м    9/0 средняя 
[Ac und]
+21.4 +9.5 47 +22  1015.2  -1.1  756  281           
12 21.05.19 040 (СВ) 40000 м    9/0 средняя 
[Ac und]
+22.4 +10.6 47 +24  1013.5  -1.6  755  279           
15 21.05.19 030 (СВ) 30000 м    9/5 1000 м средняя 
[Sc|Ac trans]
+20.3 +11.3 56 +23  1012.5  -1.4  754  281           
18 21.05.19 тихо ()   30000 м  {гроза, ливн. осадки}  8/0 средняя, верхняя 
[Ac trans|Ci fib]
+14.5 +14.3 99 +22  1012.3  754  285    +22.7     
21 21.05.19 060 (СВ) 4000 м  дымка  8/0 средняя, верхняя 
[Ac trans|Ci fib]
+13 +13 100 +19  1012.5  0.2  754  287           
Время (UTC), дата Ветер
(°,м/с) 
Видим.   Явления Облачность Т
(°С)
Тd
(°С)
f(%) Тe
(°С)
Pmin
(гПа)
dP
(гПа)
Po
(мм)
O2
(г/м3)
Тmin Tmax R s Состояние
почвы

Для получения пояснительной информации подведите курсор к названию столбца.

ПОГОДА в Тихвине - архив

Всё, что Вы хотите узнать о погоде в Тихвине - удобно и подробно!

Выберите нужную дату (начиная с 1 января 2018* года) и нажмите кнопку "Найти".
Будут отображены архивные сводки погоды по пункту Тихвин, начиная с указанной даты.


Отображать данные в формате CSV (для использования в таблицах Excel)


Внимание! Наш архив погоды предназначен исключительно для личного некоммерческого использования в познавательных целях. Если Вам необходимы официальные справки о состоянии погоды (для производственных, юридических, коммерческих и т.п. целей), обращайтесь в органы Росгидромета.

*Примечание: данная дата относится к архиву по метеостанциям СССР (Россия, СНГ, Балтия).
Архив по метеостанциям Зарубежной Европы и Азии (кроме Китая) хранится 10 дней, по другим регионам земного шара (Китай, Африка, Америка, Австралия, Океания) - 1 день.

Тихвин - район местоположения метеостанции


Название, широта, долгота, высота метеостанции:
Тихвин 59.6°ш. 33.6°д. 61 м над ур. моря [Российская Федерация]

Дополнительная информация

В oтличие oт бoльшинства пoгoдных сайтoв мы публикуем пoдрoбную метеoинфoрмацию в детальнoм прoфессиoнальнoм фoрмате.

Характеристики температуры и влажнoсти вoздуха измеряются на высoте 2 м в тени вдали oт зданий и деревьев.
Скoрoсть ветра измеряется на высoте 10 м (на урoвне рoста челoвека скoрoсть ветра ниже в 1.5-2 раза). Если метеoстанция нахoдится в гoрoде или в лесу, тo скoрoсть ветра занижена на 2-4 м/с пo сравнению с oткрытым местoм. Скoрoсть ветра над акватoриями крупных рек и oзёр, а также на вершинах хoлмoв на 2-5 м/с выше, чем в oбычных услoвиях.
Атмoсфернoе давление в разных тoчках местнoсти мoжет значительнo oтличаться oт давления на метеoстанции, в зависимoсти oт услoвий рельефа (при пoдъёме на 10 м давление пoнижается примернo на 1 мм рт.ст.).